Location: Canet
(43.3261°N, 5.3723°E)
Time: 19:00:11
(UTC+00:00)

ATLAS 5 CENTAUR R/B - Pass Details

Date: 24 January 2021
Orbit: 511 x 1147 km, 63.3° (Epoch: 16 February)

Event Time Altitude Azimuth Distance (km) Brightness Sun altitude
Rises 17:22:36 0° 266° (W) 2,693 6.7 -8.0°
Reaches altitude 10° 17:25:25 10° 289° (WNW) 1,872 4.9 -8.5°
Maximum altitude 17:28:06 16° 329° (NNW) 1,584 3.8 -9.0°
Drops below altitude 10° 17:31:00 10° 8° (N) 2,060 4.0 -9.5°
Enters shadow 17:33:36 - 26° (NNE) 2,862 4.6 -9.9°
